This is the latest recevied weather packets stored in our database for station/object N6DZK. If no packets are shown the sender has not sent any weather packets the latest 10 day(s).
| Time | Temp. | Humidity | Pressure | Rain* | Wind** | Luminosity | Snow |
|---|---|---|---|---|---|---|---|
| 1777535395 | 11.67° C | 76% | 1016.4 hPa | 0 mm | - | 0 W/m² | - |
| 1777535092 | 12.22° C | 75% | 1016.4 hPa | 0 mm | - | 0 W/m² | - |
| 1777534789 | 11.67° C | 75% | 1016.5 hPa | 0 mm | - | 0 W/m² | - |
| 1777534486 | 11.67° C | 76% | 1016.4 hPa | 0 mm | - | 0 W/m² | - |
| 1777534183 | 11.67° C | 77% | 1016.4 hPa | 0 mm | - | 0 W/m² | - |
| 1777533881 | 11.67° C | 77% | 1016.6 hPa | 0 mm | - | 0 W/m² | - |
| 1777533577 | 11.67° C | 77% | 1016.6 hPa | 0 mm | - | 0 W/m² | - |
| 1777533273 | 11.67° C | 77% | 1016.6 hPa | 0 mm | - | 0 W/m² | - |
| 1777532970 | 11.67° C | 76% | 1016.5 hPa | 0 mm | - | 0 W/m² | - |
| 1777532667 | 12.22° C | 75% | 1016.5 hPa | 0 mm | - | 0 W/m² | - |
| 1777532364 | 12.78° C | 74% | 1016.5 hPa | 0 mm | - | 0 W/m² | - |
| 1777532060 | 12.78° C | 72% | 1016.5 hPa | 0 mm | - | 0 W/m² | - |
| 1777531756 | 13.33° C | 70% | 1016.8 hPa | 0 mm | - | 0 W/m² | - |
| 1777531452 | 13.33° C | 69% | 1016.7 hPa | 0 mm | - | 0 W/m² | - |
| 1777531151 | 13.89° C | 69% | 1016.6 hPa | 0 mm | - | 0 W/m² | - |
| 1777530848 | 13.89° C | 69% | 1016.7 hPa | 0 mm | - | 0 W/m² | - |
| 1777530545 | 13.89° C | 70% | 1016.7 hPa | 0 mm | - | 0 W/m² | - |
| 1777530241 | 13.33° C | 71% | 1016.7 hPa | 0 mm | - | 0 W/m² | - |
| 1777529938 | 13.33° C | 72% | 1016.7 hPa | 0 mm | - | 0 W/m² | - |
| 1777529635 | 13.89° C | 71% | 1016.7 hPa | 0 mm | - | 0 W/m² | - |
| 1777529332 | 13.89° C | 71% | 1016.7 hPa | 0 mm | - | 0 W/m² | - |
| 1777529028 | 13.89° C | 69% | 1017 hPa | 0 mm | - | 0 W/m² | - |
| 1777528724 | 13.89° C | 68% | 1016.8 hPa | 0 mm | - | 0 W/m² | - |
| 1777528421 | 13.89° C | 68% | 1016.8 hPa | 0 mm | - | 0 W/m² | - |
| 1777528120 | 13.89° C | 69% | 1016.8 hPa | 0 mm | - | 0 W/m² | - |
* Rain latest hour (hover to see other rain measurements)
** Current wind speed in m/s (hover to see current wind gust speed)